Location: Bagnara
(41.0500°N, 14.7833°E)
Time: 19:37:19
(UTC+00:00)

DMSP 5D-3 F17 DEB - Visible Passes

Search period start: 16 January 2022 00:00
Search period end: 26 January 2022 00:00
Orbit: 815 x 823 km, 98.7° (Epoch: 15 January)

Date Brightness Start Highest point End Pass type
(mag) Time Alt. Az. Time Alt. Az. Time Alt. Az.
16 Jan ? 05:11:18 10° ENE 05:12:50 11° E 05:14:21 10° ESE visible
16 Jan ? 16:31:49 10° ESE 16:35:41 21° ENE 16:39:32 10° NNE visible
16 Jan ? 18:10:04 10° S 18:15:18 54° W 18:20:34 10° NNW visible
17 Jan ? 17:48:45 10° SSE 17:54:07 84° WSW 17:59:31 10° NNW visible
18 Jan ? 17:27:42 10° SSE 17:32:59 63° ENE 17:38:17 10° N visible
18 Jan ? 19:10:12 10° SW 19:13:27 16° W 19:16:44 10° NW visible
19 Jan ? 05:45:27 10° NE 05:49:49 25° E 05:54:10 10° SSE visible
19 Jan ? 17:06:56 10° SE 17:11:55 41° ENE 17:16:55 10° N visible
19 Jan ? 18:47:42 10° SSW 18:52:04 25° W 18:56:29 10° NW visible
20 Jan ? 05:25:12 10° NE 05:28:26 16° E 05:31:39 10° SE visible
20 Jan ? 16:46:29 10° ESE 16:50:55 27° ENE 16:55:22 10° N visible
20 Jan ? 18:25:48 10° SSW 18:30:46 39° W 18:35:47 10° NNW visible
21 Jan ? 16:26:24 10° ESE 16:29:59 19° ENE 16:33:34 10° NNE visible
21 Jan ? 18:04:15 10° S 18:09:31 61° WSW 18:14:51 10° NNW visible
22 Jan ? 17:42:59 10° SSE 17:48:21 87° ENE 17:53:43 10° NNW visible
22 Jan ? 19:27:29 10° WSW 19:29:03 11° W 19:30:37 10° WNW visible
23 Jan ? 17:22:00 10° SSE 17:27:13 56° ENE 17:32:28 10° N visible
23 Jan ? 19:03:59 10° SW 19:07:37 18° W 19:11:15 10° NW visible
24 Jan ? 05:39:51 10° NE 05:43:58 22° E 05:48:05 10° SE visible
24 Jan ? 17:01:19 10° SE 17:06:10 37° ENE 17:11:03 10° N visible
24 Jan ? 18:41:41 10° SSW 18:46:15 28° W 18:50:51 10° NW visible
25 Jan ? 05:19:48 10° ENE 05:22:34 14° E 05:25:19 10° ESE visible
25 Jan ? 16:40:56 10° ESE 16:45:11 25° ENE 16:49:26 10° NNE visible
25 Jan ? 18:19:52 10° S 18:24:57 44° W 18:30:04 10° NNW visible
